Location: Brusselsch Zeekanaal
(50.8667°N, 4.3667°E)
Time: 03:09:48
(UTC+00:00)

FengYun 1-2 T - Pass Details

Date: 08 November 2025
Orbit: 845 x 879 km, 98.8° (Epoch: 15 December)

Event Time Altitude Azimuth Distance (km) Brightness Sun altitude
Rises 04:48:31 0° 14° (NNE) 3,438 7.5 -18.7°
Reaches altitude 10° 04:50:53 10° 14° (NNE) 2,502 6.8 -18.4°
Maximum altitude 04:56:27 80° 288° (WNW) 881 4.1 -17.5°
Drops below altitude 10° 05:02:02 10° 202° (SSW) 2,507 6.5 -16.6°
Sets 05:04:24 0° 201° (SSW) 3,445 7.2 -16.2°
